When you browse on this site, cookies collect data to enhance your experience and personalize the content and advertising you see.
Visit our Privacy Policy to learn more. By continuing to use the site, you agree to this use of cookies and data.
  • In Hungary
  • List of Countries
  • For 7 days
  • Water Temperature
  • Satellite Maps
  • Weather Map
  • News
  • Weather Widgets
  • user-avatar
    Login

    Hourly Weather Huaiyuan

    Today, 15 December, Saturday

    Time Temperature Precipitation Wind Pressure Humidity
    00:00 +2°C° 0 mm 2 mps 773 mmHg 76%
    01:00 +2°C° 0 mm 2 mps 773 mmHg 79%
    02:00 +2°C° 0 mm 2 mps 773 mmHg 80%
    03:00 +1°C° 0 mm 2 mps 772 mmHg 83%
    04:00 +1°C° 0 mm 2 mps 772 mmHg 85%
    05:00 +1°C° 0 mm 2 mps 772 mmHg 88%
    06:00 +1°C° 0 mm 2 mps 772 mmHg 87%
    07:00 +2°C° 0 mm 2 mps 772 mmHg 87%
    08:00 +2°C° 0 mm 2 mps 772 mmHg 87%
    09:00 +3°C° 0 mm 2 mps 771 mmHg 83%
    10:00 +4°C° 0 mm 2 mps 771 mmHg 79%
    11:00 +5°C° 0 mm 2 mps 771 mmHg 76%
    12:00 +6°C° 0 mm 2 mps 771 mmHg 74%
    13:00 +7°C° 0 mm 2 mps 770 mmHg 73%
    14:00 +7°C° 0 mm 2 mps 769 mmHg 71%
    15:00 +8°C° 0 mm 1 mps 769 mmHg 73%
    16:00 +8°C° 0 mm 1 mps 769 mmHg 76%
    17:00 +7°C° 0 mm 0 mps 769 mmHg 78%
    18:00 +7°C° 0 mm 0 mps 769 mmHg 79%
    19:00 +6°C° 0 mm 0 mps 769 mmHg 79%
    20:00 +6°C° 0 mm 0 mps 769 mmHg 80%
    21:00 +7°C° 0 mm 1 mps 769 mmHg 81%
    22:00 +6°C° 0 mm 1 mps 769 mmHg 82%
    23:00 +6°C° 0 mm 1 mps 769 mmHg 83%

    Tomorrow, 16 December, Sunday

    Time Temperature Precipitation Wind Pressure Humidity
    00:00 +4°C° 0 mm 2 mps 769 mmHg 82%
    01:00 +4°C° 0 mm 2 mps 769 mmHg 82%
    02:00 +3°C° 0 mm 2 mps 769 mmHg 82%
    03:00 +3°C° 0 mm 2 mps 768 mmHg 79%
    04:00 +3°C° 0 mm 2 mps 768 mmHg 77%
    05:00 +1°C° 0 mm 3 mps 768 mmHg 74%
    06:00 +1°C° 0 mm 3 mps 768 mmHg 72%
    07:00 +1°C° 0 mm 3 mps 768 mmHg 70%
    08:00 +1°C° 0 mm 3 mps 768 mmHg 67%
    09:00 +3°C° 0 mm 4 mps 768 mmHg 60%
    10:00 +4°C° 0 mm 4 mps 768 mmHg 54%
    11:00 +6°C° 0 mm 4 mps 768 mmHg 47%
    12:00 +7°C° 0 mm 4 mps 768 mmHg 43%
    13:00 +8°C° 0 mm 4 mps 767 mmHg 39%
    14:00 +10°C° 0 mm 4 mps 767 mmHg 36%
    15:00 +10°C° 0 mm 4 mps 767 mmHg 38%
    16:00 +9°C° 0 mm 3 mps 767 mmHg 41%
    17:00 +8°C° 0 mm 2 mps 766 mmHg 43%
    18:00 +7°C° 0 mm 2 mps 767 mmHg 45%
    19:00 +7°C° 0 mm 2 mps 767 mmHg 46%
    20:00 +6°C° 0 mm 2 mps 767 mmHg 48%
    21:00 +6°C° 0 mm 2 mps 767 mmHg 50%
    22:00 +5°C° 0 mm 2 mps 767 mmHg 51%
    23:00 +4°C° 0 mm 3 mps 767 mmHg 53%

    Day after tomorrow, 17 December, Monday

    Time Temperature Precipitation Wind Pressure Humidity
    00:00 +4°C° 0 mm 3 mps 767 mmHg 54%
    01:00 +3°C° 0 mm 3 mps 767 mmHg 55%
    02:00 +3°C° 0 mm 3 mps 767 mmHg 56%
    03:00 +3°C° 0 mm 3 mps 767 mmHg 57%
    04:00 +2°C° 0 mm 3 mps 767 mmHg 58%
    05:00 +2°C° 0 mm 3 mps 767 mmHg 59%
    06:00 +2°C° 0 mm 3 mps 767 mmHg 58%
    07:00 +2°C° 0 mm 3 mps 768 mmHg 57%
    08:00 +1°C° 0 mm 3 mps 768 mmHg 56%
    09:00 +3°C° 0 mm 3 mps 768 mmHg 50%
    10:00 +5°C° 0 mm 3 mps 769 mmHg 44%
    11:00 +8°C° 0 mm 3 mps 769 mmHg 38%
    12:00 +9°C° 0 mm 3 mps 768 mmHg 35%
    13:00 +10°C° 0 mm 3 mps 767 mmHg 32%
    14:00 +11°C° 0 mm 3 mps 767 mmHg 29%
    15:00 +10°C° 0 mm 3 mps 767 mmHg 32%
    16:00 +9°C° 0 mm 2 mps 767 mmHg 35%
    17:00 +9°C° 0 mm 2 mps 766 mmHg 38%
    18:00 +8°C° 0 mm 2 mps 767 mmHg 40%
    19:00 +8°C° 0 mm 1 mps 767 mmHg 41%
    20:00 +8°C° 0 mm 1 mps 767 mmHg 43%
    21:00 +7°C° 0 mm 1 mps 767 mmHg 44%
    22:00 +6°C° 0 mm 2 mps 767 mmHg 45%
    23:00 +6°C° 0 mm 2 mps 767 mmHg 46%

    18 December, Tuesday

    Time Temperature Precipitation Wind Pressure Humidity
    00:00 +5°C° 0 mm 2 mps 767 mmHg 48%
    01:00 +5°C° 0 mm 2 mps 766 mmHg 49%
    02:00 +5°C° 0 mm 2 mps 766 mmHg 51%
    03:00 +5°C° 0 mm 2 mps 766 mmHg 53%
    04:00 +4°C° 0 mm 2 mps 766 mmHg 54%
    05:00 +4°C° 0 mm 2 mps 765 mmHg 56%
    06:00 +4°C° 0 mm 2 mps 766 mmHg 58%
    07:00 +4°C° 0 mm 2 mps 766 mmHg 60%
    08:00 +4°C° 0 mm 2 mps 766 mmHg 62%
    09:00 +6°C° 0 mm 2 mps 767 mmHg 58%
    10:00 +8°C° 0 mm 2 mps 767 mmHg 53%
    11:00 +10°C° 0 mm 3 mps 767 mmHg 48%
    12:00 +12°C° 0 mm 2 mps 766 mmHg 45%
    13:00 +13°C° 0 mm 2 mps 765 mmHg 41%
    14:00 +14°C° 0 mm 2 mps 765 mmHg 38%
    15:00 +14°C° 0 mm 2 mps 765 mmHg 42%
    16:00 +13°C° 0 mm 1 mps 765 mmHg 45%
    17:00 +11°C° 0 mm 0 mps 765 mmHg 49%
    18:00 +11°C° 0 mm 1 mps 765 mmHg 50%
    19:00 +10°C° 0 mm 1 mps 765 mmHg 51%
    20:00 +10°C° 0 mm 1 mps 766 mmHg 53%
    21:00 +10°C° 0 mm 1 mps 766 mmHg 54%
    22:00 +10°C° 0 mm 1 mps 766 mmHg 55%
    23:00 +9°C° 0 mm 1 mps 766 mmHg 56%

    19 December, Wednesday

    Time Temperature Precipitation Wind Pressure Humidity
    00:00 +9°C° 0 mm 1 mps 766 mmHg 57%
    01:00 +8°C° 0 mm 2 mps 765 mmHg 58%
    02:00 +8°C° 0 mm 2 mps 765 mmHg 59%
    03:00 +8°C° 0 mm 2 mps 765 mmHg 59%
    04:00 +8°C° 0 mm 2 mps 765 mmHg 60%
    05:00 +8°C° 0 mm 2 mps 765 mmHg 61%
    06:00 +8°C° 0 mm 2 mps 765 mmHg 61%
    07:00 +8°C° 0 mm 2 mps 765 mmHg 62%
    08:00 +8°C° 0 mm 2 mps 766 mmHg 62%
    09:00 +8°C° 0 mm 2 mps 766 mmHg 61%
    10:00 +9°C° 0 mm 2 mps 766 mmHg 59%
    11:00 +10°C° 0 mm 2 mps 766 mmHg 58%
    12:00 +9°C° 0.2 mm 2 mps 765 mmHg 60%
    13:00 +9°C° 0.2 mm 2 mps 765 mmHg 62%
    14:00 +9°C° 0.2 mm 2 mps 764 mmHg 64%
    15:00 +9°C° 0.3 mm 2 mps 764 mmHg 69%
    16:00 +8°C° 0.3 mm 2 mps 764 mmHg 73%
    17:00 +8°C° 0.3 mm 2 mps 764 mmHg 77%
    18:00 +8°C° 0.1 mm 2 mps 764 mmHg 79%
    19:00 +8°C° 0.1 mm 2 mps 764 mmHg 81%
    20:00 +8°C° 0.1 mm 2 mps 764 mmHg 82%
    21:00 +7°C° 0 mm 2 mps 764 mmHg 83%
    22:00 +7°C° 0 mm 2 mps 764 mmHg 84%
    23:00 +7°C° 0 mm 2 mps 764 mmHg 84%

    20 December, Thursday

    Time Temperature Precipitation Wind Pressure Humidity
    00:00 +7°C° 0 mm 2 mps 763 mmHg 86%
    01:00 +7°C° 0 mm 2 mps 763 mmHg 87%
    02:00 +7°C° 0 mm 2 mps 762 mmHg 89%
    03:00 +7°C° 0 mm 2 mps 762 mmHg 90%
    04:00 +7°C° 0 mm 2 mps 762 mmHg 92%
    05:00 +7°C° 0 mm 1 mps 761 mmHg 93%
    06:00 +8°C° 0 mm 1 mps 761 mmHg 93%
    07:00 +8°C° 0 mm 1 mps 761 mmHg 93%
    08:00 +8°C° 0 mm 1 mps 761 mmHg 93%
    09:00 +9°C° 0 mm 1 mps 761 mmHg 87%
    10:00 +11°C° 0 mm 1 mps 761 mmHg 81%
    11:00 +12°C° 0 mm 1 mps 761 mmHg 75%
    12:00 +13°C° 0 mm 1 mps 761 mmHg 72%
    13:00 +13°C° 0 mm 1 mps 760 mmHg 69%
    14:00 +14°C° 0 mm 1 mps 759 mmHg 66%
    15:00 +14°C° 0 mm 1 mps 760 mmHg 68%
    16:00 +14°C° 0 mm 1 mps 760 mmHg 70%
    17:00 +13°C° 0 mm 1 mps 760 mmHg 72%
    18:00 +13°C° 0 mm 1 mps 761 mmHg 74%
    19:00 +12°C° 0 mm 2 mps 761 mmHg 76%
    20:00 +10°C° 0 mm 2 mps 761 mmHg 79%
    21:00 +10°C° 0 mm 2 mps 761 mmHg 80%
    22:00 +11°C° 0 mm 1 mps 762 mmHg 82%
    23:00 +10°C° 0 mm 1 mps 762 mmHg 84%
    Show more